User: anonymous   Login
Location: Unspecified
(0.0000°N, 0.0000°E)
Time: 04:34:38
(UTC+00:00)
Language:

TBA - TO BE ASSIGNED - Orbit

View from above orbital plane
View from above orbital plane
View from above satellite
View from above satellite

Ground track
Ground track

The orbit is defined by the following mean orbital elements,

1 68315U          26145.58335647 +.00000000 +00000-0 -59277-3 0 00009
2 68315  97.2843 271.8279 0001408  85.8922  81.5331 15.75220027    03
Epoch (UTC): 25 May 2026 14:00:01
Eccentricity: 0.0001408
inclination: 97.2843°
perigee height: 343 km
apogee height: 345 km
right ascension of ascending node: 271.8279°
argument of perigee: 85.8922°
revolutions per day: 15.75220027
mean anomaly at epoch: 81.5331°

The dashed part of the orbit path shows where the satellite is in the earth's shadow,  

DLR